Greenwood, SC

5:49 PM EDT on October 20, 2017 (GMT -0400)
Greenwood County

Weather History for KGRD - December, 2012

Change the Weather History Date:

Thursday, December 27, 2012

  Actual Average (KAND) Record (KAND)
Temperature  
Mean Temperature 42 °F -  
Max Temperature 51 °F 53 °F 74 °F (1971)
Min Temperature 33 °F 33 °F 19 °F (1948)
Degree Days  
Heating Degree Days 23    
Moisture  
Dew Point 31 °F    
Average Humidity 70    
Maximum Humidity 92    
Minimum Humidity 46    
Precipitation  
Precipitation 0.00 in - - ()
Sea Level Pressure  
Sea Level Pressure 29.99 in    
Wind  
Wind Speed 8 mph (WSW)    
Max Wind Speed 12 mph    
Max Gust Speed 21 mph    
Visibility 10 miles    
Events      
Averages and records for this station are not official NWS values.
T = Trace of Precipitation, MM = Missing Value Source: NWS Daily Summary

Daily Weather History Graph

Daily Weather History Graph

Search for Another Location

Airport or City:

Trip Planner

Search our weather history database for the weather conditions in past years. The results will help you decide how hot, cold, wet, or windy it might be!

Date:

Astronomy

Dec. 27, 2012 Rise Set
Actual Time 7:33 AM EST 5:26 PM EST
Civil Twilight 7:05 AM EST 5:54 PM EST
Nautical Twilight 6:34 AM EST 6:25 PM EST
Astronomical Twilight 6:03 AM EST 6:56 PM EST
Moon 5:07 PM EST (12/27) 6:44 AM EST (12/27)
Length of Visible Light 10h 48m
Length of Day
9h 53m
Full, 100% of the Moon is Illuminated
Dec 27
Full
Dec 28
Full
Jan 4
Last Quarter
Jan 11
New
Jan 18
First Quarter

Hourly Weather History & Observations

Time (EST) Temp. Windchill Dew Point Humidity Pressure Visibility Wind Dir Wind Speed Gust Speed Precip Events Conditions
12:56 AM 37.0 °F 30.4 °F 28.9 °F 73% 29.85 in 10.0 mi West 9.2 mph 16.1 mph N/A   Clear
1:56 AM 36.0 °F 28.0 °F 28.9 °F 76% 29.85 in 10.0 mi WSW 11.5 mph 20.7 mph N/A   Clear
2:56 AM 35.1 °F 27.4 °F 28.0 °F 76% 29.87 in 10.0 mi WSW 10.4 mph - N/A   Clear
3:56 AM 35.1 °F 28.6 °F 28.0 °F 76% 29.87 in 10.0 mi WSW 8.1 mph - N/A   Clear
4:56 AM 34.0 °F 26.0 °F 28.0 °F 79% 29.89 in 10.0 mi WSW 10.4 mph - N/A   Clear
5:56 AM 34.0 °F 26.0 °F 28.9 °F 82% 29.92 in 10.0 mi WSW 10.4 mph - N/A   Clear
7:56 AM 33.1 °F 26.1 °F 28.9 °F 85% 29.96 in 10.0 mi WSW 8.1 mph - N/A   Clear
8:56 AM 37.0 °F 30.4 °F 30.0 °F 76% 29.98 in 10.0 mi West 9.2 mph - N/A   Clear
9:56 AM 41.0 °F 34.7 °F 30.9 °F 67% 30.01 in 10.0 mi West 10.4 mph - N/A   Clear
10:56 AM 44.1 °F 39.5 °F 30.0 °F 58% 30.04 in 10.0 mi West 8.1 mph - N/A   Clear
11:56 AM 46.0 °F 43.9 °F 30.9 °F 56% 30.01 in 10.0 mi Variable 4.6 mph - N/A   Clear
12:56 PM 48.9 °F - 30.9 °F 50% 30.00 in 10.0 mi SW 6.9 mph - N/A   Clear
1:56 PM 51.1 °F - 30.9 °F 46% 29.99 in 10.0 mi SW 6.9 mph - N/A   Clear
3:56 PM 51.1 °F - 30.9 °F 46% 30.01 in 10.0 mi West 6.9 mph - N/A   Clear
4:56 PM 48.0 °F - 32.0 °F 54% 30.03 in 10.0 mi WSW 4.6 mph - N/A   Clear
5:56 PM 46.0 °F 44.8 °F 33.1 °F 61% 30.04 in 10.0 mi WSW 3.5 mph - N/A   Clear
6:56 PM 42.1 °F 39.2 °F 33.1 °F 70% 30.06 in 10.0 mi SW 4.6 mph - N/A   Clear
7:56 PM 41.0 °F 39.0 °F 33.1 °F 73% 30.06 in 10.0 mi Variable 3.5 mph - N/A   Clear
8:56 PM 39.0 °F - 32.0 °F 76% 30.06 in 10.0 mi Calm Calm - N/A   Clear
9:56 PM 36.0 °F - 32.0 °F 86% 30.08 in 10.0 mi Calm Calm - N/A   Clear
10:56 PM 33.1 °F - 30.9 °F 92% 30.09 in 10.0 mi Calm Calm - N/A   Clear
11:56 PM 34.0 °F - 30.9 °F 89% 30.09 in 10.0 mi Calm Calm - N/A   Clear